Regional Weather Roundup
Issued by NWS

Home | Current Version | Previous Version | Text Only | Print | Product List | Glossary Off
Versions: 1 2 3 4 5 6 7 8 9 10 11 12 13 14 15 16 17 18 19 20 21 22 23 24 25 26 27 28 29 30 31 32 33 34 35 36 37 38 39 40 41 42 43 44 45 46 47 48 49 50

709
ASUS43 KOAX 300002
RWRNE

WEATHER ROUNDUP FOR NEBRASKA
NATIONAL WEATHER SERVICE OMAHA NE
700 PM CDT MON MAY 29 2017

NOTES: SATELLITE DATA IS BEING USED TO AUGMENT CLOUD COVER ABOVE
       12000 FEET.
       "FAIR" INDICATES FEW OR NO CLOUDS BELOW 12,000 FEET WITH NO
       SIGNIFICANT WEATHER AND/OR OBSTRUCTIONS TO VISIBILITY.

  * THESE STATIONS DO NOT REPORT WEATHER SUCH AS RAIN...SNOW OR FOG.

NEZ001>004-019>022-054>056-300100-
NEBRASKA PANHANDLE

CITY           SKY/WX    TMP DP  RH WIND       PRES   REMARKS
SCOTTSBLUFF    SUNNY     71  32  23 N22       30.12F
6HR MIN TEMP:  70; 6HR MAX TEMP:  74;

ALLIANCE       SUNNY     68  30  24 NW15G24   30.10F
6HR MIN TEMP:  65; 6HR MAX TEMP:  70;

CHADRON        SUNNY     68  41  37 NE8       30.09F
6HR MIN TEMP:  66; 6HR MAX TEMP:  70;

GORDON         FAIR      67  33  28 N9        30.10F
6HR MIN TEMP:  63; 6HR MAX TEMP:  69;

KIMBALL        PTSUNNY   66  33  30 N12G18    30.17S
SIDNEY         PTSUNNY   68  38  33 N15G21    30.14S
6HR MIN TEMP:  65; 6HR MAX TEMP:  72;

$$

NEZ057>060-069>072-079>082-300100-
SOUTHWEST NEBRASKA

CITY           SKY/WX    TMP DP  RH WIND       PRES   REMARKS
NORTH PLATTE   SUNNY     73  37  27 N7        30.06F
6HR MIN TEMP:  71; 6HR MAX TEMP:  75;

IMPERIAL       SUNNY     72  36  26 N15       30.08F
6HR MIN TEMP:  70; 6HR MAX TEMP:  77;

LEXINGTON      SUNNY     74  33  22 N14       30.06S
MCCOOK         MOSUNNY   75  38  26 N12       30.05F
6HR MIN TEMP:  74; 6HR MAX TEMP:  80;

OGALLALA       SUNNY     74  34  23 NW13G18   30.08F
$$

NEZ005>010-023>029-035>040-094-300100-
NORTH CENTRAL NEBRASKA

CITY           SKY/WX    TMP DP  RH WIND       PRES   REMARKS
VALENTINE      SUNNY     70  31  23 NW14G23   30.06F
6HR MIN TEMP:  63; 6HR MAX TEMP:  71;

AINSWORTH      MOSUNNY   66  36  32 NW12G23   30.06F
BROKEN BOW     SUNNY     72  34  24 N16       30.06F
6HR MIN TEMP:  70; 6HR MAX TEMP:  74;

O`NEILL        PTSUNNY   68  32  25 NW16G23   30.04F
ORD            SUNNY     69  35  28 NW15      30.04F
6HR MIN TEMP:  67; 6HR MAX TEMP:  71;

THEDFORD       SUNNY     70  35  28 N12       30.07F
$$

NEZ041-046>049-061>064-073>077-083>087-300100-
SOUTH CENTRAL NEBRASKA

CITY           SKY/WX    TMP DP  RH WIND       PRES   REMARKS
GRAND ISLAND   SUNNY     72  37  28 N15G24    30.05F
6HR MIN TEMP:  71; 6HR MAX TEMP:  76;

AURORA         SUNNY     73  33  23 NW14G21   30.05S
HASTINGS       SUNNY     73  37  27 N10       30.06S
6HR MIN TEMP:  72; 6HR MAX TEMP:  76;

HEBRON         SUNNY     76  35  22 NW10      30.02F
HOLDREGE       SUNNY     73  31  21 N6        30.05F
KEARNEY *      SUNNY     73  34  23 N15       30.06S
YORK           SUNNY     72  32  23 NW13G24   30.04S
$$

NEZ011>018-030>034-042>045-300100-
NORTHEAST NEBRASKA

CITY           SKY/WX    TMP DP  RH WIND       PRES   REMARKS
NORFOLK        MOSUNNY   68  40  35 N14G22    30.02S
6HR MIN TEMP:  67; 6HR MAX TEMP:  72;

ALBION         MOSUNNY   69  37  31 NW13      30.04F
BLAIR          MOSUNNY   71  39  30 NW13G22   30.00S
FREMONT        PTSUNNY   71  38  29 NW15      30.01S
TEKAMAH        MOSUNNY   72  38  29 NW23G29   29.99S
6HR MIN TEMP:  72; 6HR MAX TEMP:  77;

WAYNE          SUNNY     68  41  37 NW17G24   30.02S
$$

NEZ050>053-065>068-078-088>093-300100-
SOUTHEAST NEBRASKA

CITY           SKY/WX    TMP DP  RH WIND       PRES   REMARKS
LINCOLN        SUNNY     74  33  22 NW18      30.02F
6HR MIN TEMP:  73; 6HR MAX TEMP:  78;

OMAHA EPPLEY   MOSUNNY   72  39  30 NW20      29.98S
6HR MIN TEMP:  71; 6HR MAX TEMP:  76;

BEATRICE       SUNNY     74  39  27 N15G22    30.01S
NEBRASKA CITY  SUNNY     74  26  16 NW15G21   30.00S
PLATTSMOUTH    MOSUNNY   74  35  23 NW14      30.00F
$$

NEZ044-045-051>053-067-300100-
OMAHA AREA

CITY           SKY/WX    TMP DP  RH WIND       PRES   REMARKS
OMAHA EPPLEY   MOSUNNY   72  39  30 NW20      29.98S
6HR MIN TEMP:  71; 6HR MAX TEMP:  76;

BLAIR          MOSUNNY   71  39  30 NW13G22   30.00S
FREMONT        PTSUNNY   71  38  29 NW15      30.01S
MILLARD        MOSUNNY   74  42  31 W14       29.99F
OFFUTT AFB     SUNNY     72  37  28 NW13      29.98F
PLATTSMOUTH    MOSUNNY   74  35  23 NW14      30.00F
WAHOO          FAIR      72  34  24 NW17      30.01S
$$




USA.gov is the U.S. government's official web portal to all federal, state and local government web resources and services.